Location: Amsterdam
(30.7274°N, 84.4357°W)
Time: 05:52:27
(UTC+00:00)

Courier 1B Rocket - Pass Details

Date: 10 February 2026
Orbit: 920 x 1201 km, 28.2° (Epoch: 5 March)

Event Time Altitude Azimuth Distance (km) Brightness Sun altitude
Rises 10:08:26 0° 270° (W) 4,038 - -29.3°
Reaches altitude 10° 10:11:54 10° 257° (WSW) 3,101 - -28.6°
Maximum altitude 10:17:38 23° 208° (SSW) 2,304 - -27.3°
Exits shadow 10:18:00 23° 205° (SSW) 2,308 6.7 -27.3°
Drops below altitude 10° 10:23:26 10° 160° (SSE) 3,116 7.9 -26.1°
Sets 10:26:57 0° 146° (SSE) 4,063 8.7 -25.3°
